[Iaude] MPEC R77: 2016 RJ17 [a=1.53,e=0.28,i=29.3,H=23.4]

mpec at mpc.eps.harvard.edu mpec at mpc.eps.harvard.edu
Wed Sep 7 18:25:17 EDT 2016


M.P.E.C. 2016-R77                                Issued 2016 Sept. 7, 22:21 UT
 
     The Minor Planet Electronic Circulars contain information on unusual
         minor planets and routine data on comets.  They are published
    on behalf of Division F of the International Astronomical Union by the
          Minor Planet Center, Smithsonian Astrophysical Observatory,
                          Cambridge, MA 02138, U.S.A.

             Prepared using the Tamkin Foundation Computer Network

                              MPC at CFA.HARVARD.EDU
            URL http://www.minorplanetcenter.net/    ISSN 1523-6714


                                   2016 RJ17
 
Observations:
     K16R17J* C2016 09 05.23846 21 37 15.22 +13 08 27.2          21.0 VqER077G96
     K16R17J  C2016 09 05.24390 21 37 15.64 +13 07 34.5          20.2 VqER077G96
     K16R17J  C2016 09 05.24931 21 37 15.99 +13 06 42.0          20.6 VqER077G96
     K16R17J  C2016 09 05.25473 21 37 16.40 +13 05 49.9          20.4 VqER077G96
     K16R17J  C2016 09 05.32888 21 37 21.97 +12 53 51.5          21.2 VqER077G96
     K16R17J  C2016 09 05.33076 21 37 22.08 +12 53 32.8          21.0 VqER077G96
     K16R17J  C2016 09 05.33264 21 37 22.23 +12 53 15.2          21.1 VqER077G96
     K16R17J  C2016 09 05.33448 21 37 22.35 +12 52 57.0          21.6 VqER077G96
     K16R17J KC2016 09 05.42354 21 37 29.52 +12 38 27.2          20.1 RoER077291
     K16R17J KC2016 09 05.42724 21 37 29.85 +12 37 51.6          20.0 RoER077291
     K16R17J KC2016 09 06.13058521 38 41.41 +10 41 05.9          21.0 VuER077H21
     K16R17J KC2016 09 06.13891621 38 42.05 +10 39 41.9          20.4 VuER077H21
     K16R17J KC2016 09 06.14789321 38 42.76 +10 38 10.8          20.6 VuER077H21
     K16R17J  C2016 09 06.15975 21 38 45.01 +10 36 14.9                qER077G96
     K16R17J  C2016 09 06.16578 21 38 45.49 +10 35 13.8          21.8 VqER077G96
     K16R17J  C2016 09 06.17179 21 38 45.95 +10 34 14.1          20.5 VqER077G96
     K16R17J  C2016 09 06.17780 21 38 46.45 +10 33 11.9          20.7 VqER077G96
     K16R17J  C2016 09 06.84987 21 39 53.85 +08 36 48.5          21.2 VSER077033
     K16R17J  C2016 09 06.85223 21 39 54.04 +08 36 23.7          20.8 VSER077033
     K16R17J  C2016 09 06.85697 21 39 54.47 +08 35 33.6          20.7 VSER077033
     K16R17J  C2016 09 06.93389 21 40 01.27 +08 22 00.6          21.1 VSER077033
     K16R17J  C2016 09 06.93625 21 40 01.48 +08 21 35.4          21.3 VSER077033
     K16R17J  C2016 09 06.93861 21 40 01.69 +08 21 10.2          21.0 VSER077033
     K16R17J  C2016 09 06.94098 21 40 01.91 +08 20 44.7          20.9 VSER077033
     K16R17J KC2016 09 07.13942121 40 23.94 +07 45 40.1          20.2 VuER077H21
     K16R17J KC2016 09 07.14568321 40 24.47 +07 44 33.0          20.5 VuER077H21
     K16R17J KC2016 09 07.15200721 40 25.01 +07 43 25.1          20.6 VuER077H21
 
Observer details:
033 Karl Schwarzschild Observatory, Tautenburg.  Observers B. Stecklum,
    C. Hoegner.  Measurer B. Stecklum.  1.34-m f/3 Schmidt + CCD.
291 LPL/Spacewatch II.  Observer T. H. Bressi.  1.8-m f/2.7 reflector + CCD.
G96 Mt. Lemmon Survey.  Observers R. G. Matheny, D. C. Fuls.  Measurers
    E. J. Christensen, D. C. Fuls, A. R. Gibbs, A. D. Grauer, J. A. Johnson,
    R. A. Kowalski, S. M. Larson, G. J. Leonard, R. G. Matheny, R. L. Seaman,
    F. C. Shelly.  1.5-m reflector + 10K CCD.
H21 Astronomical Research Observatory, Westfield.  Observer R. Holmes.
    Measurers S. Foglia, L. Buzzi, T. Linder, R. Holmes.  0.76-m f/3.0
    astrograph + CCD.
 
Orbital elements:
2016 RJ17                                                Earth MOID = 0.1284 AU
Epoch 2016 July 31.0 TT = JDT 2457600.5                 MPC
M 321.26928              (2000.0)            P               Q
n   0.52086385     Peri.  208.11757     +0.94921358     -0.29700114
a   1.5298655      Node   167.73110     +0.28828581     +0.95320339
e   0.2751146      Incl.   29.25417     -0.12603519     -0.05651208
P   1.89           H   23.4           G   0.15           U   8
Residuals in seconds of arc
160905 G96  0.1+  0.1-    160905 291  0.1+  0.8+    160906 033  0.2+  0.2-
160905 G96  0.4+  0.3-    160906 H21  0.0   0.5-    160906 033  0.3+  0.3-
160905 G96  0.3-  0.6-    160906 H21  0.5-  0.0     160906 033  0.0   0.1+
160905 G96  0.1-  0.4-    160906 H21  0.8-  0.0     160906 033  0.0   0.1-
160905 G96  0.5+  0.0     160906 G96  0.3+  0.3-    160906 033  0.0   0.2-
160905 G96  0.0   0.4-    160906 G96  0.1+  0.2-    160906 033  0.2+  0.6-
160905 G96  0.1+  0.3+    160906 G96  0.3-  1.1+    160907 H21  0.1+  0.5+
160905 G96  0.2-  0.0     160906 G96  0.1-  0.1-    160907 H21  0.2-  0.4+
160905 291  0.1-  0.1+    160906 033  0.5+  0.3-    160907 H21  0.3-  0.2+

Ephemeris:
2016 RJ17                a,e,i = 1.53, 0.28, 29                  q = 1.1090
Date    TT    R. A. (2000) Decl.     Delta      r     Elong.  Phase     V
2016 08 08    21 18 05.4 +44 44 39   0.3699  1.2369   119.1    45.8    23.4
...
2016 08 23    21 23 47.3 +36 12 28   0.2483  1.1895   131.2    39.8    22.3
...
2016 08 31    21 30 24.0 +25 01 19   0.1919  1.1676   142.5    31.7    21.5
...
2016 09 06    21 38 27.5 +11 03 42   0.1600  1.1532   153.3    23.1    20.8
2016 09 07    21 40 08.4 +08 11 05   0.1561  1.1509   154.9    21.8    20.7
2016 09 08    21 41 55.9 +05 09 32   0.1526  1.1487   156.2    20.7    20.6
...
2016 09 14    21 55 12.5 -15 07 51   0.1434  1.1367   154.3    22.6    20.5
...
2016 09 22    22 20 33.8 -40 16 42   0.1630  1.1238   134.4    39.6    21.3
...
2016 10 07    23 31 35.7 -63 31 49   0.2549  1.1103   109.4    58.1    22.8

A. U. Tomatic                (C) Copyright 2016 MPC           M.P.E.C. 2016-R77




More information about the Iaude mailing list